Location: Unspecified
(22.4673°N, 0.0000°E)
Time: 03:13:02
(UTC+00:00)

Vanguard 2 Rocket - All Passes

Search period start: 04 April 2026 00:00
Search period end: 14 April 2026 00:00
Orbit: 554 x 3286 km, 32.9° (Epoch: 29 March)

Date Brightness Start Highest point End Pass type
(mag) Time Alt. Az. Time Alt. Az. Time Alt. Az.
4 Apr - 00:05:20 10° WNW 00:08:49 25° NNW 00:12:12 10° NE night (unlit)
4 Apr - 02:18:44 10° NW 02:22:16 25° NNE 02:26:49 10° ENE visible
4 Apr - 04:29:58 10° WNW 04:35:17 77° NNE 04:44:33 10° ESE visible
4 Apr - 06:42:17 10° W 06:49:17 38° SSW 07:00:52 10° SE daylight
4 Apr - 09:00:47 10° SW 09:05:38 13° SSW 09:11:21 10° S daylight
4 Apr - 18:34:14 10° S 18:37:02 11° SSE 18:39:28 10° SE visible
4 Apr - 20:44:22 10° SW 20:51:23 41° SSE 20:55:53 10° E visible
4 Apr - 22:59:18 10° W 23:03:57 40° NNW 23:07:42 10° NE night (unlit)
5 Apr - 01:14:08 10° NW 01:17:06 20° N 01:20:24 10° NE night (unlit)
5 Apr - 03:25:50 10° NW 03:30:16 48° NNE 03:37:09 10° E visible
5 Apr - 05:37:25 10° WNW 05:43:27 52° SSW 05:53:59 10° SE daylight
5 Apr - 07:52:25 10° WSW 07:58:42 18° SSW 08:07:10 10° S daylight
5 Apr - 19:38:30 10° SSW 19:46:03 28° SSE 19:51:00 10° E visible
5 Apr - 21:52:56 10° WSW 21:59:12 74° NNW 22:03:26 10° ENE visible
6 Apr - 00:08:45 10° WNW 00:11:57 21° N 00:15:03 10° NE night (unlit)
6 Apr - 02:21:41 10° NW 02:25:20 29° NNE 02:30:06 10° ENE visible
6 Apr - 04:32:57 10° WNW 04:38:07 77° SSW 04:46:59 10° ESE visible
6 Apr - 06:46:09 10° W 06:52:19 25° SSW 07:01:34 10° SSE daylight
6 Apr - 18:32:51 10° SSW 18:40:15 20° SSE 18:45:29 10° ESE visible
6 Apr - 20:46:23 10° SW 20:54:19 67° SSE 20:59:07 10° ENE visible
6 Apr - 23:02:32 10° W 23:06:57 30° NNW 23:10:30 10° NE night (unlit)
7 Apr - 01:17:14 10° NW 01:20:17 21° N 01:23:39 10° ENE night (unlit)
7 Apr - 03:28:43 10° WNW 03:33:09 67° NNE 03:40:03 10° ESE visible
7 Apr - 05:40:50 10° W 05:46:25 34° SSW 05:55:25 10° SSE daylight
7 Apr - 08:00:04 10° SW 08:01:58 11° SSW 08:04:03 10° SSW daylight
7 Apr - 17:27:57 10° S 17:33:58 15° SSE 17:38:44 10° SE daylight
7 Apr - 19:39:48 10° SW 19:49:04 44° SSE 19:54:36 10° E visible
7 Apr - 21:55:49 10° W 22:02:05 50° NNW 22:06:18 10° NE visible
8 Apr - 00:12:03 10° NW 00:15:08 19° N 00:18:04 10° NE night (unlit)
8 Apr - 02:24:31 10° NW 02:28:19 38° NNE 02:33:20 10° E visible
8 Apr - 04:36:06 10° WNW 04:41:00 50° SSW 04:49:04 10° SE visible
8 Apr - 06:51:01 10° WSW 06:55:28 15° SSW 07:01:14 10° S daylight
8 Apr - 18:33:19 10° SSW 18:43:21 32° SSE 18:49:39 10° E visible
8 Apr - 20:48:45 10° WSW 20:57:10 83° NNW 21:02:08 10° ENE visible
8 Apr - 23:05:51 10° WNW 23:10:01 24° NNW 23:13:23 10° NE night (unlit)
9 Apr - 01:20:09 10° NW 01:23:25 24° NNE 01:27:00 10° ENE night (unlit)
9 Apr - 03:31:39 10° WNW 03:36:00 81° SSW 03:42:41 10° ESE visible
9 Apr - 05:44:47 10° WSW 05:49:30 21° SSW 05:56:14 10° SSE daylight
9 Apr - 17:27:09 10° SSW 17:37:08 24° SSE 17:43:59 10° ESE daylight
9 Apr - 19:41:34 10° SW 19:51:58 66° SSE 19:57:49 10° ENE visible
9 Apr - 21:58:53 10° W 22:05:00 37° NNW 22:09:10 10° NE visible
10 Apr - 00:15:08 10° NW 00:18:19 20° N 00:21:19 10° NE night (unlit)
10 Apr - 02:27:20 10° NW 02:31:15 56° NNE 02:36:25 10° ESE visible
10 Apr - 04:39:32 10° W 04:44:00 31° SSW 04:50:42 10° SSE visible
10 Apr - 16:21:45 10° S 16:30:24 17° SSE 16:37:05 10° ESE daylight
10 Apr - 18:34:25 10° SW 18:46:18 47° SSE 18:53:11 10° E visible
10 Apr - 20:51:26 10° WSW 20:59:58 60° NNW 21:05:02 10° ENE visible
10 Apr - 23:09:05 10° WNW 23:13:08 22° N 23:16:26 10° NE night (unlit)
11 Apr - 01:22:54 10° NW 01:26:29 32° NNE 01:30:22 10° E night (unlit)
11 Apr - 03:34:45 10° WNW 03:38:54 48° SSW 03:44:59 10° SE visible
11 Apr - 05:50:14 10° SW 05:52:41 12° SSW 05:55:32 10° S daylight
11 Apr - 15:18:41 10° SSE 15:23:06 11° SSE 15:27:04 10° SE daylight
11 Apr - 17:27:29 10° SSW 17:40:08 35° SSE 17:48:02 10° E daylight
11 Apr - 19:43:43 10° WSW 19:54:45 90° NW 20:00:50 10° ENE visible
11 Apr - 22:02:03 10° WNW 22:07:58 31° NNW 22:12:05 10° NE visible
12 Apr - 00:18:00 10° NW 00:21:30 23° N 00:24:43 10° ENE night (unlit)
12 Apr - 02:30:13 10° WNW 02:34:08 89° SW 02:39:15 10° ESE visible
12 Apr - 04:43:36 10° WSW 04:47:04 18° SSW 04:51:37 10° SSE visible
12 Apr - 16:21:04 10° SSW 16:33:28 26° SSE 16:42:04 10° E daylight
12 Apr - 18:35:58 10° SW 18:49:07 66° SSE 18:56:23 10° ENE visible
12 Apr - 20:54:19 10° W 21:02:49 47° NNW 21:07:56 10° NE visible
12 Apr - 23:12:08 10° NW 23:16:19 23° N 23:19:39 10° NE night (unlit)
13 Apr - 01:25:38 10° NW 01:29:28 47° NNE 01:33:35 10° E night (unlit)
13 Apr - 03:38:10 10° W 03:41:52 27° SSW 03:46:48 10° SSE visible
13 Apr - 15:15:37 10° S 15:26:18 19° SSE 15:34:41 10° ESE daylight
13 Apr - 17:28:26 10° SW 17:42:59 49° SSE 17:51:31 10° E daylight
13 Apr - 19:46:10 10° WSW 19:57:29 70° NNW 20:03:45 10° ENE visible
13 Apr - 22:05:12 10° WNW 22:11:03 28° NNW 22:15:08 10° NE visible
